weather.gov     
National Weather Service

Terminal Aerodrome Forecast
NWS Homepage
This page is being discontinued on March 12, 2014.
The same data is available at this site. Please update your bookmarks.
Thank you, and we apologize for the inconvenience.
Please send an email to SR-SRH.Webmaster@noaa.gov with any concerns.


Current Version
Previous Version:    01  02  03  04  05  06  07  08  09  10  11  12  13  14  
[Printable]
470
FTUS41 KBOX 310528
TAFORH
TAF
KORH 310528Z 3106/0106 25005KT P6SM FEW250
     FM311600 22009KT P6SM SCT050
     FM311800 22009KT P6SM BKN050
     FM010000 21006KT P6SM SCT050
     FM010100 22006KT P6SM SCT250=


470
FTUS41 KBOX 310528
TAFORH
TAF
KORH 310528Z 3106/0106 25005KT P6SM FEW250
     FM311600 22009KT P6SM SCT050
     FM311800 22009KT P6SM BKN050
     FM010000 21006KT P6SM SCT050
     FM010100 22006KT P6SM SCT250=




U.S. Dept. of Commerce
NOAA National Weather Service
1325 East West Highway
Silver Spring, MD 20910
E-mail: w-nws.webmaster@noaa.gov
Page last modified: May 16, 2007
NATIONAL WEATHER SERVICE: for Safety, for Work, for Fun - FOR LIFE